Regional Weather Roundup
Issued by NWS

Home | Current Version | Previous Version | Text Only | Print | Product List | Glossary On
Versions: 1 2 3 4 5 6 7 8 9 10 11 12 13 14 15 16 17 18 19 20 21 22 23 24 25 26 27 28 29 30 31 32 33 34 35 36 37 38 39 40 41 42 43 44 45 46 47 48 49 50
000
ASUS43 KMPX 212101
RWRMN
WEATHER ROUNDUP FOR MINNESOTA
NATIONAL WEATHER SERVICE TWIN CITIES/CHANHASSEN MN
300 PM CST SUN JAN 21 2018


NOTE: "FAIR" INDICATES FEW OR NO CLOUDS BELOW 12,000 FEET WITH NO
SIGNIFICANT WEATHER AND/OR OBSTRUCTIONS TO VISIBILITY. N/A MEANS
CURRENT SKY AND/OR WEATHER CONDITIONS ARE NOT AVAILABLE.

MNZ060>063-068>070-212200-
   Twin Cities Metro

CITY           SKY/WX    TMP DP  RH WIND       PRES   REMARKS
TWIN CITIES    CLOUDY    38  30  73 N9        29.95R
ST PAUL        CLOUDY    37  29  72 N7        29.96R
CRYSTAL        CLOUDY    37  27  67 N6        29.94S
BLAINE         CLOUDY    37  30  75 N8        29.95S
LAKEVILLE      CLOUDY    37  30  75 N9        29.92S
EDEN PRAIRIE   CLOUDY    38  29  70 N7        29.92F
SOUTH ST PAUL  CLOUDY    38  29  72 N7        29.94S
LAKE ELMO      CLOUDY    36  30  80 N6        29.95S
$$
MNZ001>005-007-008-013>017-022>024-027-028-212200-
   Northwest Minnesota

CITY           SKY/WX    TMP DP  RH WIND       PRES   REMARKS
BEMIDJI        CLOUDY    24  23  96 CALM      30.02R FOG
HALLOCK        CLOUDY    23  21  93 NW5       30.09R WCI  17
ROSEAU         CLOUDY    27  21  80 CALM      30.06S
WARROAD        CLOUDY    27  21  80 N5        30.07R WCI  21
CROOKSTON      FAIR      25  25 100 N6        30.07S WCI  18
FOSSTON        CLOUDY    21  21 100 N3        30.04R FOG
DETROIT LAKES  CLOUDY    28  28 100 N6        30.02S WCI  22
MOORHEAD       CLOUDY    28  25  86 N8        30.05F WCI  20
PARK RAPIDS    FAIR      28  23  81 N8        29.99S WCI  20
MAHNOMEN       CLOUDY    25  24  96 NE7       30.03R WCI  18
$$
MNZ006-009>011-018-025>026-212200-
   North Central Minnesota

CITY           SKY/WX    TMP DP  RH WIND       PRES   REMARKS
BAUDETTE       CLOUDY    25  24  96 NW7       30.04R WCI  17
FLAG ISLAND    CLOUDY    25  21  86 NW6       30.06R WCI  18
INTL FALLS     FOG       26  23  88 CALM      30.03R VSB 1/2
WASKISH        FOG       25  23  93 CALM      30.03R VSB 3/4
BIG FORK       CLOUDY    27  27 100 NE3       30.02R FOG
LONGVILLE      FAIR      27  23  86 NW5       30.01R WCI  21
GRAND RAPIDS   CLOUDY    28  26  92 NW6       30.02R WCI  22
CRANE LAKE     CLOUDY    23  21  93 CALM      30.05R
ORR            CLOUDY    25  23  93 CALM      30.00R
COOK           CLOUDY    25  25 100 CALM      30.02R
WALKER         CLOUDY    25  22  89 N7        30.01S WCI  17
$$
MNZ012-019>021-037-212200-
   Northeast Minnesota

CITY           SKY/WX    TMP DP  RH WIND       PRES   REMARKS
DULUTH         FAIR      34  27  75 N3        29.97R
HIBBING        CLOUDY    27  24  89 NW7       30.00R WCI  19
EVELETH        FAIR      25  23  90 NE7       30.00S WCI  18
DULUTH HARBOR  CLOUDY    30  28  93 E7        30.03R FOG     WCI  23
TWO HARBORS    CLOUDY    36  28  75 E7        29.99R HAZE
SILVER BAY     FOG       28  28 100 E6        30.00R VSB 1/4 WCI  22
GRAND MARAIS     N/A     30  28  92 NE7       30.05R WCI  23
G MARAIS ARPRT CLOUDY    27  21  80 N3        29.99R
$$
MNZ029>031-032-039>041-046>048-054>057-064-212200-
   West Central Minnesota

CITY           SKY/WX    TMP DP  RH WIND       PRES   REMARKS
FERGUS FALLS   FAIR      30  27  86 N6        30.00S WCI  24
WHEATON        CLOUDY    30  27  86 NW12      30.03F WCI  21
MORRIS         CLOUDY    34  28  80 N10       29.98S WCI  26
ALEXANDRIA     CLOUDY    35  29  78 N8        29.98F WCI  29
ELBOW LAKE     FAIR      31  29  90 W6        30.00F WCI  26
WADENA         FAIR      30  25  80 N7        29.99S WCI  23
GLENWOOD       FAIR      36  30  80 N7        29.98S
APPLETON       CLOUDY    36  28  75 NW7       29.99F
BENSON         CLOUDY    36  30  80 N8        30.00S
ORTONVILLE     CLOUDY    30  27  86 N5        30.00F WCI  25
MADISON        FLURRIES  36  30  80 NW9       29.98F
WILLMAR        FAIR      36  32  87 N6        29.98F
$$
MNZ033>034-036-042>043-049>051-058-059-212200-
   Central Minnesota

CITY           SKY/WX    TMP DP  RH WIND       PRES   REMARKS
ST CLOUD       CLOUDY    36  29  75 N6        29.97S
SAUK CENTRE      N/A     34  29  80 N7        29.98R WCI  28
PAYNESVILLE    CLOUDY    36  31  83 N7        29.97S
AITKIN         FAIR      32  25  74 N3        29.98S
PINE RIVER     FAIR      28  23  80 N5        30.03S WCI  23
BRAINERD       FAIR      33  26  75 N8        29.99S WCI  26
STAPLES        FAIR      30  25  80 NW6       29.99S WCI  24
LONG PRAIRIE   FAIR      32  28  86 NW6       29.98S WCI  26
LITTLE FALLS   CLOUDY    34  23  64 CALM      29.98S
LITCHFIELD     CLOUDY    37  30  75 N6        29.96S
BUFFALO        CLOUDY    36  29  76 N5        29.97S
MAPLE LAKE     CLOUDY    36  31  83 MISG      29.97S
HUTCHINSON     CLOUDY    37  31  80 N9        29.96S
$$
MNZ037-044-045-052-053-212200-
   East Central Minnesota

CITY           SKY/WX    TMP DP  RH WIND       PRES   REMARKS
PRINCETON      FAIR      37  28  70 N5        29.97F
MORA           FAIR      36  28  75 N3        29.99S
CAMBRIDGE        N/A     37  27  65 N5        29.97S
RUSH CITY      CLOUDY    36  28  74 N3        29.98S
MOOSE LAKE     PTSUNNY   36  28  75 N5        29.97R
CLOQUET        FAIR      34  25  69 N5        29.98R WCI  30
MCGREGOR       FAIR      32  28  86 N5        29.99S WCI  27
$$
MNZ071>073-080-081-089-090-097-098-212200-
   Southwest Minnesota

CITY           SKY/WX    TMP DP  RH WIND       PRES   REMARKS
MONTEVIDEO     CLOUDY    34  32  93 N12       29.96F WCI  25
GRANITE FALLS  CLOUDY    37  32  82 NW7       29.97F
CANBY          CLOUDY    34  32  94 NW12G17   29.97S WCI  25
MARSHALL       CLOUDY    34  30  85 N14       29.94F WCI  25
REDWOOD FALLS  CLOUDY    37  31  78 N8        29.94F
OLIVIA         MOSUNNY   36  32  87 N9        29.95F
PIPESTONE      CLOUDY    34  28  80 NE17      29.87F WCI  23
WINDOM         SUNNY     41  23  48 N20G25    29.88F
WORTHINGTON    CLOUDY    38  31  76 N16G23    29.86F
JACKSON        CLOUDY    39  30  70 NE15      29.87F
TRACY          CLOUDY    37  32  84 N14G21    29.91F
SLAYTON        CLOUDY    36  31  82 N16       29.89F
$$
MNZ065>067-074>077-082>085-091>093-212200-
   South Central Minnesota

CITY           SKY/WX    TMP DP  RH WIND       PRES   REMARKS
MANKATO        FAIR      40  32  73 N15       29.90F
NEW ULM        SUNNY     39  28  65 N10G16    29.92S
ST JAMES       SUNNY     43  30  61 N14G20    29.90F
FAIRMONT       CLOUDY    39  32  76 NE10      29.87F
FARIBAULT      FAIR      39  30  70 N7        29.91S
OWATONNA       FAIR      39  30  70 N8        29.89S
WASECA         FAIR      37  32  81 N8        29.90R
ALBERT LEA     CLOUDY    37  32  81 N10       29.87S
$$
MNZ078>079-086>088-094>096-212200-
   Southeast Minnesota

CITY           SKY/WX    TMP DP  RH WIND       PRES   REMARKS
ROCHESTER      CLOUDY    37  31  78 NE12      29.88R
RED WING       CLOUDY    43  27  52 CALM      29.92S
STANTON        FAIR      39  32  76 N9        29.90F
DODGE CENTER   FAIR      37  30  75 NE6       29.89R
WINONA         CLOUDY    37  32  81 CALM      29.89R
AUSTIN         CLOUDY    37  32  81 NE9       29.86S
PRESTON        CLOUDY    36  31  82 NE8       29.87R
$$
ABBREVIATIONS USED IN REMARKS
   TC - TEMPERATURES IN CELSIUS
  WCI - WIND CHILL INDEX
   HX - HEAT INDEX
  VSB - VISIBILITY
$$




USA.gov is the U.S. government's official web portal to all federal, state and local government web resources and services.